This is the latest recevied weather packets stored in our database for station/object JH4GLG-13. If no packets are shown the sender has not sent any weather packets the latest 10 day(s).
| Time | Temp. | Humidity | Pressure | Rain* | Wind** | Luminosity | Snow |
|---|---|---|---|---|---|---|---|
| 1777596042 | 18.89° C | 83% | 1003 hPa | 0 mm | - | - | - |
| 1777595142 | 19.44° C | 83% | 1003 hPa | 0 mm | - | - | - |
| 1777594242 | 18.89° C | 86% | 1003 hPa | 0 mm | - | - | - |
| 1777593375 | 17.78° C | 96% | 1003 hPa | 0 mm | - | - | - |
| 1777593342 | 17.78° C | 96% | 1003 hPa | 0 mm | - | - | - |
| 1777592442 | 17.78° C | 95% | 1003.1 hPa | 0 mm | - | - | - |
| 1777591543 | 17.78° C | 99% | 1003.2 hPa | 0 mm | - | - | - |
| 1777590641 | 16.67° C | 99% | 1003.4 hPa | 0 mm | - | - | - |
| 1777589746 | 16.11° C | 99% | 1003.4 hPa | 0 mm | - | - | - |
| 1777589742 | 16.11° C | 99% | 1003.3 hPa | 0 mm | - | - | - |
| 1777588841 | 16.11° C | 99% | 1003.4 hPa | 0 mm | - | - | - |
| 1777587942 | 15.56° C | 99% | 1003.6 hPa | 0 mm | - | - | - |
| 1777587041 | 15.56° C | 99% | 1003.5 hPa | 0 mm | - | - | - |
| 1777586219 | 15° C | 99% | 1003.5 hPa | 0 mm | - | - | - |
| 1777586142 | 15° C | 99% | 1003.5 hPa | 0 mm | - | - | - |
| 1777585240 | 15° C | 99% | 1003.3 hPa | 0 mm | - | - | - |
| 1777584341 | 15° C | 99% | 1003.2 hPa | 0 mm | - | - | - |
| 1777583441 | 15.56° C | 99% | 1003.1 hPa | 0 mm | - | - | - |
| 1777582542 | - | - | 1003 hPa | 0 mm | - | - | - |
| 1777581640 | 15.56° C | 99% | 1002.8 hPa | 0 mm | - | - | - |
| 1777580783 | 15.56° C | 99% | 1003 hPa | 0 mm | - | - | - |
| 1777580741 | 15.56° C | 99% | 1003 hPa | 0 mm | - | - | - |
| 1777579012 | 15.56° C | 99% | 1002.7 hPa | 0 mm | - | - | - |
| 1777578945 | 15.56° C | 99% | 1002.7 hPa | 0 mm | - | - | - |
| 1777578941 | 15.56° C | 99% | 1002.6 hPa | 0 mm | - | - | - |
* Rain latest hour (hover to see other rain measurements)
** Current wind speed in m/s (hover to see current wind gust speed)